Flag for Japan Weather past 2 weeks in Hamamatsu, Japan

Now
37 °F

Chilly.


Feels Like: 26 °F
Forecast: 33 / 44 °F
Wind: 23 mph from West

Location: Omaezaki

Current Time: Jan 31, 2015 at 11:16:45 PM

Latest Report: Jan 31, 2015 at 10:00 PM


Visibility: 13 mi

Pressure: 30.03 "Hg

Humidity: 54%

Dew point: 22 °F

Location of HamamatsuLocation

Historic Weather in Hamamatsu — Graph

°F

Hamamatsu temperature yesterday

Maximum temperature yesterday: 47 °F (at 7:00 PM)
Minimum temperature yesterday: 43 °F (at 5:00 AM)
Average temperature yesterday: 46 °F

Past Weeks' High & Low Weather Summary

 TemperatureHumidityPressure
High60 °F (Jan 27, 3:00 PM)100% (Jan 22, 10:00 PM)30.37 "Hg (Jan 22, 10:00 PM)
Low33 °F (Jan 29, 6:00 AM)17% (Jan 28, 2:00 PM)29.50 "Hg (Jan 23, 12:00 AM)
Average46 °F64%30.03 "Hg
* Reported Jan 16 10:00 PM — Jan 31 10:00 PM, Hamamatsu, Weather by CustomWeather, © 2014

Note: Actual official high and low records may vary slightly from our data, if they occured in-between our weather recording intervals... More about our weather records

Advertising

Hamamatsu weather history for previous 24 hours

 ConditionsComfort  
Time TempWeatherWind HumidityBarometerVisibility
10:00 PM
Jan 31
37 °FChilly.23 mph54%30.03 "Hg12 mi
9:00 PM37 °FChilly.22 mph57%30.02 "Hg12 mi
8:00 PM39 °FChilly.25 mph55%30.01 "Hg12 mi
7:00 PM39 °FChilly.25 mph54%30.02 "Hg12 mi
6:00 PM41 °FQuite cool.25 mph53%29.98 "Hg12 mi
5:00 PM42 °FQuite cool.25 mph47%29.94 "Hg12 mi
4:00 PM46 °FCool.24 mph33%29.92 "Hg12 mi
3:00 PM47 °FCool.26 mph32%29.90 "Hg12 mi
2:00 PM48 °FCool.23 mph39%29.87 "Hg12 mi
1:00 PM47 °FCool.28 mph37%29.87 "Hg12 mi
12:00 PM47 °FCool.22 mph35%29.90 "Hg12 mi
11:00 AM46 °FCool.22 mph48%29.93 "Hg12 mi
10:00 AM44 °FQuite cool.20 mph49%29.94 "Hg12 mi
9:00 AM43 °FQuite cool.21 mph59%29.95 "Hg12 mi
8:00 AM40 °FQuite cool.18 mph66%29.91 "Hg12 mi
7:00 AM40 °FChilly.22 mph67%29.90 "Hg12 mi
6:00 AM41 °FQuite cool.20 mph70%29.88 "Hg12 mi
5:00 AM42 °FQuite cool.23 mph75%29.86 "Hg12 mi
4:00 AM43 °FQuite cool.23 mph76%29.83 "Hg12 mi
3:00 AM43 °FQuite cool.22 mph79%29.84 "Hg12 mi
2:00 AM42 °FQuite cool.21 mph77%29.83 "Hg12 mi
1:00 AM43 °FQuite cool.20 mph78%29.82 "Hg12 mi
12:00 AM43 °FQuite cool.23 mph75%29.81 "Hg12 mi
11:00 PM
Jan 30
44 °FQuite cool.23 mph81%29.80 "Hg12 mi
Weather by CustomWeather, © 2014

See weather overviewHow to use our weather pages